GEFSNGP_850_meantemp_132.txt.gz
Temperature
22 23 23 23 23 23 23 23 22 23 23 25 25 25 25 25 24 23 22 22 21 20 20 20 19 19 19 19 19 19 18 18 18 17 17 17 17 16 16 16 15 15 15 15
23 24 24 24 24 24 24 24 24 24 24 26 26 26 25 25 24 23 23 22 21 21 20 20 19 19 19 19 19 18 18 18 18 17 17 17 16 16 16 15 15 15 15 15
23 24 24 23 24 25 24 25 24 24 25 26 26 25 25 25 24 24 23 22 21 21 20 20 19 19 19 19 19 18 18 18 18 17 17 17 16 16 16 15 15 15 15 15
22 23 22 24 26 26 25 25 25 25 26 26 26 26 25 25 24 24 23 22 22 21 20 20 20 19 19 19 19 18 18 18 18 17 17 17 16 16 16 15 15 15 15 15
23 22 23 25 26 26 25 25 26 26 26 26 26 26 25 25 24 24 23 23 22 21 21 20 20 19 19 19 18 18 18 18 18 17 17 17 16 16 15 15 15 15 14 14
22 22 22 24 26 26 25 24 26 26 26 26 26 24 24 24 24 24 23 23 22 22 21 21 20 20 19 19 18 18 18 18 18 17 17 17 16 16 15 15 14 14 14 14
22 22 23 25 25 25 23 23 25 25 25 25 25 24 24 24 24 23 23 22 22 22 21 21 20 20 19 19 19 19 18 18 18 17 17 17 16 16 15 15 14 14 14 13
22 22 22 24 24 24 24 25 25 25 24 24 24 24 24 23 23 22 22 22 22 21 21 20 20 20 19 19 19 18 18 18 18 17 17 16 16 16 15 15 14 14 13 13
23 23 23 24 23 23 23 24 24 24 24 24 23 23 23 23 22 22 21 21 21 21 20 20 20 19 19 19 19 18 18 18 17 17 17 16 16 16 15 15 14 14 13 13
23 24 24 23 23 23 23 23 23 23 23 23 23 23 22 22 21 21 21 21 20 20 20 20 19 19 19 19 18 18 18 17 17 17 16 16 16 15 15 15 14 14 13 13
23 23 23 23 22 22 22 22 22 22 22 22 22 22 22 21 21 20 20 20 20 20 19 19 19 19 18 18 18 18 17 17 17 16 16 16 16 15 15 15 15 14 13 13
22 23 23 22 22 21 21 21 21 21 21 21 21 21 21 21 20 20 20 19 19 19 19 19 18 18 18 18 18 17 17 17 16 16 16 16 15 15 14 14 14 14 13 13
22 21 21 21 21 20 20 20 20 20 20 20 20 20 21 20 20 19 19 19 19 18 18 18 18 18 17 17 17 17 17 17 16 16 16 15 15 15 14 14 14 13 13 13
20 20 20 20 20 19 19 19 19 20 20 20 20 20 20 20 19 19 19 18 18 18 18 18 17 17 17 17 17 16 16 16 16 16 15 15 15 14 14 14 14 13 13 13
19 19 19 19 19 19 18 18 18 19 19 19 19 19 19 19 19 18 18 18 18 18 17 17 17 17 17 16 16 16 16 15 15 15 15 14 14 14 14 13 13 13 13 12
18 18 18 18 18 18 18 17 17 17 17 17 17 17 18 18 18 18 18 18 17 17 17 17 17 16 16 16 16 15 15 15 15 15 14 14 14 13 13 13 13 12 12 12
17 17 17 17 17 17 17 17 16 16 16 16 16 16 17 17 17 17 17 17 17 17 16 16 16 16 16 15 15 15 15 14 14 14 14 13 13 13 13 12 12 12 12 12
16 16 16 16 16 16 16 16 16 16 15 15 15 15 16 16 16 16 16 16 16 16 15 15 15 15 15 15 15 14 14 14 13 13 13 13 12 12 12 12 12 11 11 11
14 14 14 15 15 15 15 15 15 15 15 14 14 15 15 15 15 15 15 15 15 15 15 15 15 15 15 14 14 14 13 13 13 12 12 12 12 12 11 11 11 11 10 10
13 13 13 13 14 14 13 14 14 14 14 14 14 14 14 14 14 14 14 14 14 14 14 14 14 14 14 14 13 13 13 12 12 12 12 11 11 11 11 11 10 10 10 10
12 12 12 12 12 13 13 13 13 13 13 13 13 13 13 13 13 13 13 13 13 13 13 13 13 13 13 13 13 12 12 12 11 11 11 11 11 11 10 10 10 10 10 9
11 11 11 11 12 12 12 12 12 12 12 12 12 12 12 12 12 12 12 12 12 12 12 12 12 12 12 12 12 11 11 11 11 11 10 10 10 10 10 10 9 9 9 9
10 11 11 11 11 11 11 11 11 11 11 11 11 11 11 11 11 11 11 11 11 11 11 12 11 11 11 11 11 11 10 10 10 10 10 10 9 9 9 9 9 9 8 8
10 10 10 10 10 10 10 10 10 10 10 10 10 10 10 10 10 10 10 10 10 10 10 10 10 10 10 10 10 10 9 9 9 9 9 9 9 9 8 8 8 8 8 8
9 9 9 10 10 10 10 10 9 9 9 9 9 9 9 9 9 9 9 9 9 9 9 9 9 9 9 9 8 8 8 8 8 8 8 8 8 8 8 8 7 7 7 7
8 8 8 8 8 8 8 9 8 8 8 8 8 8 8 8 8 8 8 8 8 8 8 8 8 8 8 7 7 7 7 7 7 7 7 7 7 7 7 7 7 6 6 6
7 7 8 8 8 8 8 8 7 7 7 7 7 7 7 7 7 7 7 7 7 7 7 7 7 7 6 6 6 6 6 6 6 6 6 6 6 6 6 6 6 5 5 5

GEFSNGP_850_meantemp_138.txt.gz
Temperature
18 19 19 19 19 19 18 17 17 18 18 19 19 19 20 20 20 20 20 20 20 21 20 20 20 20 20 19 19 19 18 18 18 18 17 17 17 16 16 16 16 16 16 15
18 19 19 19 19 19 19 19 18 18 19 20 20 20 20 20 20 20 20 20 20 21 21 20 20 20 20 19 19 19 19 18 18 18 17 17 17 17 16 16 16 16 15 15
17 18 19 18 19 19 19 19 19 19 19 20 19 20 20 20 20 21 21 21 21 21 21 21 20 20 20 19 19 19 19 18 18 18 17 17 17 17 16 16 16 16 15 15
16 18 18 19 20 20 20 20 20 20 20 20 21 21 22 22 21 21 21 21 21 21 21 21 21 20 20 19 19 19 18 18 18 18 17 17 17 17 16 16 16 16 15 15
16 17 18 19 20 20 20 19 20 20 21 21 22 21 21 22 22 22 22 22 22 22 21 21 21 20 20 19 19 19 18 18 18 18 17 17 17 17 16 16 16 15 15 15
16 17 18 19 20 21 20 19 20 20 20 21 20 18 19 22 22 22 22 22 22 22 21 21 21 20 20 19 19 19 19 19 18 18 18 17 17 17 16 16 16 15 15 15
16 17 17 19 20 21 19 19 20 21 21 21 20 20 22 22 22 22 22 22 22 21 21 21 21 20 20 19 19 19 19 18 18 18 18 17 17 17 16 16 15 15 15 15
15 16 18 19 20 19 19 20 21 21 22 21 21 22 22 22 22 22 22 22 21 21 21 21 20 20 20 20 20 19 19 18 18 18 17 17 17 16 16 16 15 15 15 14
16 17 18 20 20 21 21 21 21 21 22 22 22 22 22 22 22 22 22 22 21 21 21 20 20 20 20 20 19 19 19 18 18 18 17 17 17 16 16 16 15 15 15 15
16 17 18 20 21 21 21 21 21 21 22 22 21 21 21 21 21 21 21 21 21 21 20 20 20 20 20 20 19 19 19 18 18 18 17 17 17 16 16 16 16 15 15 15
16 17 18 19 20 20 21 21 21 21 21 21 21 21 21 21 21 21 21 20 20 20 20 20 20 20 19 19 19 19 19 18 18 18 17 17 17 16 16 16 16 16 15 15
16 17 16 18 20 20 20 20 20 21 21 20 20 20 20 20 20 20 20 20 20 20 20 20 19 19 19 19 19 18 18 18 18 17 17 17 16 16 16 15 15 15 15 14
19 19 19 19 19 20 20 20 20 20 20 20 20 20 20 20 20 20 20 19 19 19 19 19 19 19 19 19 18 18 18 18 17 17 17 17 16 16 16 15 15 15 14 14
19 19 18 18 18 19 19 19 19 19 19 19 19 19 19 19 19 19 19 19 19 19 19 19 19 18 18 18 18 18 18 17 17 17 17 16 16 16 15 15 15 15 14 14
18 18 18 18 18 18 18 18 19 18 18 18 18 18 19 18 18 18 18 18 18 18 18 18 18 18 18 17 17 17 17 17 16 16 16 16 16 15 15 15 14 14 14 13
17 17 17 17 17 17 17 17 17 17 17 17 17 17 17 18 17 17 17 17 18 17 17 17 17 17 17 17 17 17 16 16 16 16 15 15 15 15 14 14 14 14 13 13
16 15 16 16 16 16 16 16 16 16 16 16 16 16 17 17 17 17 17 17 17 17 17 17 16 16 16 16 16 16 16 15 15 15 15 14 14 14 14 14 13 13 13 13
16 16 16 16 15 15 15 15 16 16 16 16 16 16 16 16 16 16 16 16 16 16 16 16 16 16 16 16 15 15 15 15 15 14 14 14 14 13 13 13 13 13 12 12
15 15 15 15 15 15 15 15 15 15 15 15 15 15 15 15 15 15 15 15 15 15 15 15 15 15 15 15 15 15 14 14 14 14 14 13 13 13 12 12 12 12 12 11
14 14 14 14 14 14 14 14 14 14 14 14 14 14 14 14 14 14 14 14 14 14 14 14 14 14 14 14 14 14 13 13 13 13 13 13 12 12 12 11 11 11 11 11
13 13 13 13 13 13 13 13 13 13 13 13 13 13 13 13 13 13 13 13 13 13 13 13 13 13 13 13 13 13 13 12 12 12 12 12 12 11 11 11 10 10 10 10
12 12 12 12 12 12 12 12 12 12 12 12 12 12 12 12 12 12 12 12 12 12 12 12 12 12 12 12 12 12 12 12 11 11 11 11 11 10 10 10 10 9 9 9
11 11 11 11 11 11 11 11 11 11 11 11 12 12 12 11 11 11 11 11 11 11 11 11 11 11 11 11 11 11 11 10 10 10 10 10 10 9 9 9 9 8 8 8
10 10 10 10 10 10 10 10 10 10 10 10 10 10 11 11 10 10 10 10 10 10 10 10 10 10 10 10 10 10 10 9 9 9 9 9 8 8 8 8 8 8 8 7
9 9 9 9 9 9 9 9 9 9 9 9 9 9 9 9 10 10 9 9 9 9 9 9 9 9 9 9 9 9 8 8 8 8 8 8 7 7 7 7 7 7 7 6
8 8 8 9 9 9 9 9 9 8 8 8 8 8 8 9 9 8 8 8 8 8 8 8 8 8 8 8 8 7 7 7 7 7 7 6 6 6 6 6 6 6 6 5
7 7 7 8 8 8 8 8 8 8 8 8 8 8 8 8 8 7 7 7 7 7 7 7 7 7 7 7 6 6 6 6 6 6 6 5 5 5 5 5 5 5 5 4

GEFSNGP_850_meantemp_144.txt.gz
Temperature
16 17 17 17 17 16 15 15 15 16 16 18 18 17 18 18 19 19 19 19 20 20 20 20 20 19 19 19 19 18 18 18 18 17 17 17 17 16 16 16 16 15 15 15
17 17 17 17 17 17 16 16 16 16 17 18 18 18 18 18 18 18 19 19 20 20 20 20 20 20 19 19 19 18 18 18 18 17 17 17 17 17 16 16 16 15 15 15
16 17 17 17 17 17 17 16 16 17 17 18 17 17 18 18 18 19 19 20 20 20 20 20 20 20 20 19 19 19 18 18 18 17 17 17 17 17 16 16 16 16 15 15
15 17 17 17 18 18 17 18 17 17 17 17 18 19 19 19 19 20 20 20 20 21 21 21 20 20 20 19 19 19 18 18 18 18 17 17 17 17 16 16 16 16 15 15
14 16 16 18 18 17 17 17 18 17 18 18 19 19 19 20 20 21 21 21 21 21 21 20 20 20 20 19 19 19 19 18 18 18 17 17 17 17 16 16 16 16 15 15
14 16 16 18 18 18 18 18 18 18 17 18 18 17 18 20 20 21 21 21 21 21 21 20 20 20 20 19 19 19 19 19 18 18 18 17 17 17 16 16 16 15 15 15
14 15 16 17 17 18 18 18 19 19 18 18 18 18 20 20 21 21 21 21 21 21 21 20 20 20 20 19 19 19 19 18 18 18 18 17 17 16 16 16 15 15 15 15
13 15 16 17 17 17 18 19 19 19 20 19 20 20 20 21 21 21 21 21 21 21 20 20 20 20 20 19 19 19 19 18 18 18 17 17 17 16 16 16 15 15 15 15
14 16 17 17 18 19 20 19 20 20 20 20 20 20 20 20 20 20 21 21 20 20 20 20 20 20 20 20 19 19 19 18 18 18 17 17 17 16 16 16 15 15 15 15
14 14 16 17 18 19 20 20 20 20 20 20 20 20 20 20 20 20 20 20 20 20 20 20 20 19 19 19 19 19 19 18 18 18 17 17 17 16 16 16 16 16 15 15
14 15 16 17 19 19 20 20 20 20 20 20 20 20 20 20 20 20 20 20 19 19 19 19 19 19 19 19 19 18 18 18 18 18 17 17 17 17 16 16 16 16 15 15
15 16 15 17 18 19 20 20 20 20 20 20 20 20 20 20 19 19 19 19 19 19 19 19 19 19 19 18 18 18 18 18 18 17 17 17 17 16 16 16 15 15 15 15
17 18 18 18 18 18 19 19 19 20 20 19 19 19 19 19 19 19 19 19 19 18 18 18 18 18 18 18 18 18 18 17 17 17 17 17 16 16 16 16 15 15 15 14
17 17 17 18 18 18 18 18 19 19 19 19 19 19 18 18 18 18 18 18 18 18 18 17 17 17 17 17 17 17 17 17 17 17 17 17 16 16 16 16 15 15 15 14
16 17 17 17 17 17 18 18 18 18 18 18 18 18 18 18 18 18 17 17 17 17 17 17 17 17 17 17 17 17 17 17 16 16 16 16 16 16 15 15 15 15 14 14
16 16 16 17 17 17 17 17 17 17 17 17 17 17 17 17 17 17 17 17 17 17 16 16 16 16 16 16 16 16 16 16 16 16 16 15 15 15 15 14 14 14 14 14
15 15 15 16 16 16 16 16 16 16 16 16 16 16 16 16 16 16 16 16 16 16 16 16 16 16 15 15 15 15 15 15 15 15 15 15 15 14 14 14 13 13 13 13
15 15 15 15 15 15 15 15 15 15 15 15 15 15 15 15 15 15 15 15 15 15 15 15 15 15 15 15 15 15 15 14 14 14 14 14 14 14 13 13 13 13 13 12
14 14 14 15 15 15 15 15 15 15 15 14 15 15 14 14 14 14 14 14 14 14 14 14 14 14 14 14 14 14 14 14 14 14 13 13 13 13 13 12 12 12 12 11
13 13 14 14 14 14 14 14 14 14 14 14 14 14 14 13 13 13 13 13 13 13 13 13 13 14 14 14 14 13 13 13 13 13 13 12 12 12 12 11 11 11 11 11
12 12 13 13 13 13 13 13 13 13 13 13 13 13 13 13 12 12 13 13 12 12 12 13 13 13 13 13 13 13 13 12 12 12 12 12 11 11 11 11 10 10 10 10
11 12 12 12 12 12 12 12 12 12 12 12 12 12 12 12 12 12 12 12 12 12 12 12 12 12 12 12 12 12 12 11 11 11 11 11 10 10 10 10 9 9 9 9
11 11 11 11 11 11 11 11 11 11 11 11 11 11 11 11 11 11 11 11 11 11 11 11 11 11 11 11 11 11 10 10 10 10 10 10 10 9 9 9 8 8 8 8
10 10 10 10 10 10 10 10 10 10 10 10 10 10 10 10 10 10 10 10 10 10 10 10 10 10 10 10 10 10 10 9 9 9 9 9 8 8 8 8 8 7 7 7
9 9 9 9 9 9 9 9 9 9 9 9 9 9 9 9 9 9 9 9 9 9 9 9 9 9 9 9 9 9 8 8 8 8 8 7 7 7 7 7 7 6 6 6
8 8 8 8 9 9 8 8 8 8 9 9 9 8 8 8 8 8 8 8 8 8 8 8 8 8 8 8 8 8 7 7 7 7 7 6 6 6 6 6 5 5 5 5
8 8 8 8 8 8 8 8 8 8 8 8 8 8 8 8 8 8 8 7 7 7 7 7 7 7 7 7 7 6 6 6 6 6 5 5 5 5 5 5 4 4 4 4

GEFSNGP_850_meantemp_150.txt.gz
Temperature
21 21 21 21 21 20 20 21 21 22 22 23 23 22 22 21 20 20 20 19 19 19 19 19 19 19 19 18 18 18 18 17 17 17 17 16 16 16 16 16 16 16 15 15
21 21 21 21 21 21 21 21 21 22 22 23 22 22 21 21 20 20 20 19 19 19 19 19 19 19 19 18 18 18 18 18 17 17 17 17 16 16 16 16 16 16 15 15
21 21 21 21 22 21 21 21 22 22 22 23 22 22 21 20 20 20 19 19 19 19 19 19 19 19 19 19 19 18 18 18 18 17 17 17 17 16 16 16 16 16 16 15
21 21 20 22 22 22 21 21 22 22 22 22 22 21 20 19 19 19 19 19 19 19 19 19 19 19 19 18 18 18 18 18 18 18 17 17 17 17 16 16 16 16 16 16
21 21 21 22 22 21 21 22 22 22 22 21 21 21 21 19 19 19 19 19 19 19 19 19 19 19 18 18 18 18 18 18 18 18 17 17 17 17 16 16 16 16 16 16
20 20 21 22 22 21 22 22 22 22 22 22 21 22 22 19 19 19 19 19 19 19 19 19 19 19 18 18 18 18 18 18 18 18 18 17 17 17 16 16 16 16 16 15
20 21 22 22 21 20 21 22 22 21 21 21 22 22 21 19 19 19 19 19 19 19 19 19 19 19 18 19 19 19 18 18 18 18 18 17 17 17 16 16 16 16 15 15
20 20 21 21 20 22 22 22 21 21 21 21 20 20 19 19 19 19 19 19 19 19 19 19 19 19 19 19 19 18 18 18 18 18 17 17 17 17 16 16 16 16 15 15
22 22 21 20 20 20 20 21 21 20 20 20 19 19 19 19 19 19 19 19 19 18 19 19 19 19 19 18 18 18 18 18 18 18 18 17 17 17 16 16 16 15 15 15
21 21 20 19 19 19 19 19 19 19 19 19 19 19 18 19 18 19 19 18 18 18 18 18 18 18 18 18 18 18 18 18 18 17 17 17 17 17 16 16 16 16 15 15
21 21 19 19 18 18 18 19 19 19 19 19 19 18 18 18 18 18 18 18 18 18 18 18 18 18 18 18 18 18 17 17 17 17 17 17 17 17 16 16 16 16 16 15
21 21 21 20 19 18 18 18 18 18 18 18 18 18 18 18 18 18 18 18 18 18 18 17 17 18 18 18 18 17 17 17 17 17 17 16 16 16 16 16 16 16 16 15
19 18 19 18 18 18 18 18 18 18 18 18 18 18 18 18 17 18 18 18 18 17 17 17 17 17 17 17 17 17 16 16 16 16 16 16 16 16 16 16 16 16 15 15
16 17 17 17 17 17 17 17 17 17 18 18 18 18 17 17 17 17 17 17 17 17 17 17 17 17 17 17 16 16 16 16 16 16 16 16 16 15 15 15 15 15 15 15
15 16 16 16 16 16 16 17 17 17 17 17 17 17 17 17 17 17 16 16 16 16 16 16 16 16 16 16 16 16 15 15 15 15 15 15 15 15 14 14 14 14 14 14
15 15 15 15 16 16 16 16 16 16 16 16 16 16 16 16 16 16 16 16 16 16 16 16 16 16 16 16 16 15 15 15 15 15 15 15 14 14 14 14 13 13 13 14
14 14 14 15 15 15 15 15 15 15 15 15 16 16 16 16 15 15 15 15 15 15 15 15 15 15 15 15 15 15 14 14 14 14 14 14 14 14 13 13 13 13 13 13
15 15 15 15 15 15 15 15 15 15 15 15 15 15 15 15 15 14 14 14 14 14 14 14 14 14 14 14 14 14 14 14 14 13 13 13 13 13 13 13 12 12 12 12
14 14 14 14 14 14 14 14 14 14 14 14 14 14 14 14 14 14 14 13 14 14 13 14 14 14 14 14 14 14 13 13 13 13 13 13 13 12 12 12 12 11 11 11
13 13 13 13 13 14 14 14 14 14 13 14 13 13 13 13 13 13 13 13 13 13 13 13 13 13 13 13 13 13 13 13 12 12 12 12 12 12 11 11 11 11 10 10
12 12 13 13 13 13 13 13 13 13 13 13 13 13 13 12 12 12 12 12 12 12 12 12 12 12 12 12 12 12 12 12 12 11 11 11 11 11 11 10 10 10 10 9
11 11 11 12 12 12 12 12 12 12 12 12 12 12 12 12 12 12 12 12 11 11 11 11 11 12 12 12 11 11 11 11 11 10 10 10 10 10 10 9 9 9 9 9
10 10 11 11 11 11 11 11 11 11 11 11 11 11 11 11 11 11 11 11 11 11 11 11 11 11 11 11 10 10 10 10 9 9 9 9 9 9 9 9 8 8 8 8
9 10 10 10 10 10 10 10 10 10 10 10 10 10 10 10 10 10 10 10 10 10 10 10 10 10 10 10 9 9 9 9 9 8 8 8 8 8 8 8 7 7 7 7
9 9 9 9 9 10 9 9 9 9 9 9 9 9 10 10 10 10 9 9 9 9 9 9 9 9 9 9 9 8 8 8 8 8 7 7 7 7 7 7 6 6 6 6
8 8 8 8 9 9 9 8 8 8 9 8 8 9 9 9 9 9 9 9 9 9 9 8 8 8 8 8 8 8 7 7 7 7 7 6 6 6 6 6 5 5 5 5
7 7 7 7 8 8 8 8 8 8 8 8 8 8 8 8 8 8 8 8 8 8 8 7 7 7 7 7 7 7 6 6 6 6 6 5 5 5 5 5 4 4 4 4